Flag for French Polynesia Weather past 2 weeks in Gambier Islands, French Polynesia

Now
74 °F

Mild.


Feels Like: 74 °F
Forecast: 76 / 79 °F
Wind: 3 mph from Northeast

Location: Rikitea


UV Index: 5 (Moderate)

Visibility: N/A


Pressure: 30.09 "Hg

Humidity: 87%

Dew point: 70 °F

Location of Gambier IslandsLocation

Historic Weather in Gambier Islands

°F

Gambier Islands temperature yesterday

Maximum temperature yesterday: 80 °F (at 11:00 AM)
Minimum temperature yesterday: 73 °F (at 6:00 AM)
Average temperature yesterday: 76 °F

Past Weeks' High & Low Weather Summary

 TemperatureHumidityPressure
High81 °F (Apr 20, 2:00 PM)94% (Apr 12, 1:00 AM)30.11 "Hg (Apr 12, 1:00 AM)
Low66 °F (Apr 13, 5:00 AM)55% (Apr 19, 2:00 PM)29.89 "Hg (Apr 12, 3:00 PM)
Average74 °F77%30.02 "Hg
* Reported Apr 9 11:00 PM — Apr 24 11:00 PM, Gambier Islands, Weather by CustomWeather, © 2014

Note: Actual official high and low records may vary slightly from our data, if they occured in-between our weather recording intervals... More about our weather records

Advertising

Historic Weather Conditions — Data for Previous 24 hours

 ConditionsComfort  
Time TempWeatherWind HumidityBarometerVisibility
11:00 PM
Apr 24
75 °FMild.3 mph86%30.10 "HgN/A
10:00 PM75 °FMild.3 mph86%30.09 "HgN/A
9:00 PM75 °FMild.2 mph85%30.09 "HgN/A
8:00 PM75 °FMild.3 mph85%30.08 "HgN/A
7:00 PM75 °FMild.3 mph84%30.05 "HgN/A
6:00 PM75 °FMild.3 mph84%30.02 "HgN/A
5:00 PM76 °FPassing clouds.3 mph84%30.01 "Hg19 mi
4:00 PM75 °FPassing clouds.3 mph85%30.00 "Hg19 mi
3:00 PM78 °FScattered clouds.3 mph76%29.99 "Hg19 mi
2:00 PM80 °FOvercast.5 mph77%29.99 "Hg19 mi
1:00 PM79 °FOvercast.5 mph73%30.01 "Hg8 mi
12:00 PM79 °FOvercast.2 mph74%30.04 "Hg6 mi
11:00 AM80 °FOvercast.3 mph72%30.06 "Hg22 mi
10:00 AM80 °FOvercast.3 mph73%30.08 "Hg22 mi
9:00 AM79 °FOvercast.2 mph72%30.08 "Hg22 mi
8:00 AM76 °FOvercast.2 mph80%30.06 "Hg22 mi
7:00 AM74 °FOvercast.3 mph84%30.05 "Hg22 mi
6:00 AM73 °FOvercast.2 mph87%30.04 "Hg16 mi
5:00 AM74 °FMild.3 mph88%30.03 "HgN/A
4:00 AM74 °FMild.3 mph89%30.01 "HgN/A
3:00 AM74 °FMild.3 mph89%30.03 "HgN/A
2:00 AM74 °FMild.3 mph89%30.04 "HgN/A
1:00 AM74 °FMild.3 mph89%30.05 "HgN/A
12:00 AM74 °FMild.3 mph89%30.05 "HgN/A
Weather by CustomWeather, © 2014

See weather overview